Starlink 3323

operational
NORAD ID: 50804 Int'l Des: 2022-001 Owner: SPXS Country: US Constellation: starlink
LEOCIRCULAR

Starlink 3323について

説明を読み込み中...

リアルタイム位置

3D地球を読み込み中...

次回通過

高度履歴

Altitude vs Time

uPlot chart will show altitude changes over time

軌道要素

1 50804U 22001B 25347.57683485 .00000137 00000-0 26691-4 0 9998
2 50804 53.2159 185.6965 0001408 90.6382 269.4771 15.08835483217545
Epoch: Dec 13, 2025 • Age: 17 hours

現在のステータス

高度 548.0 km
速度 7.59 km/s
衛星直下点 -26.00°S, 29.81°W
打ち上げ日 Jan 6, 2022
運用期間 3.9 years
タイプ internet

技術仕様

分類 Payload
質量 297.00 kg
乾燥質量 275.00 kg
総質量 297.00 kg
長さ 0.20 m
直径 2.80 m
スパン 9.00 m
形状 Box + pan
製造者 SPXS
バスタイプ Starlink
フェーズステータス In Orbit
所有者/国 SPXS/US

大規模コンステレーション

Loading constellations...